Flag for Argentina Past Weather in Comodoro Rivadavia, Chubut, Argentina — Yesterday and Last 2 Weeks

Now
48 °F

Clear.


Feels Like: 48 °F
Forecast: 44 / 58 °F
Wind: No wind

Location: Comodoro Rivadavia Aerodrome

Current Time: Jun 24, 2016 at 10:38:28 PM

Latest Report: Jun 24, 2016 at 10:00 PM


Visibility: 10 mi

Pressure: 30.21 "Hg

Humidity: 66%

Dew Point: 37 °F

Location of Comodoro RivadaviaLocation

Past Weather in Comodoro Rivadavia — Graph

°F

Comodoro Rivadavia Temperature Yesterday

Maximum temperature yesterday: 57 °F (at 1:00 PM)
Minimum temperature yesterday: 43 °F (at 4:00 AM)
Average temperature yesterday: 51 °F

High & Low Weather Summary for the Past Weeks

 TemperatureHumidityPressure
High63 °F (Jun 11, 2:00 PM)94% (Jun 20, 6:00 PM)30.51 "Hg (Jun 20, 6:00 PM)
Low34 °F (Jun 19, 9:00 AM)30% (Jun 12, 11:00 PM)29.68 "Hg (Jun 13, 2:00 AM)
Average49 °F60%30.10 "Hg
* Reported Jun 9 9:00 PM — Jun 24 9:00 PM, Comodoro Rivadavia, Weather by CustomWeather, © 2016

Note: Actual official high and low records may vary slightly from our data, if they occured in-between our weather recording intervals... More about our weather records

Advertising

Comodoro Rivadavia Weather History for the Previous 24 Hours

Scroll right to see more
 ConditionsComfort  
Time TempWeatherWind HumidityBarometerVisibility
9:00 PM
Fri, Jun 24
46 °FClear.7 mph62%30.21 "Hg10 mi
8:00 PM46 °FClear.5 mph62%30.21 "Hg10 mi
7:00 PM46 °FClear.5 mph62%30.21 "Hg10 mi
6:00 PM48 °FClear.7 mph58%30.21 "Hg10 mi
5:00 PM50 °FClear.14 mph47%30.21 "Hg10 mi
4:00 PM52 °FSunny.13 mph47%30.21 "Hg10 mi
3:00 PM52 °FSunny.12 mph50%30.21 "Hg10 mi
2:00 PM50 °FSunny.10 mph54%30.24 "Hg10 mi
1:00 PM52 °FSunny.6 mph50%30.24 "Hg10 mi
11:00 AM45 °FSunny.12 mph49%30.24 "Hg10 mi
10:00 AM41 °FSunny.14 mph57%30.24 "Hg10 mi
9:00 AM39 °FSunny.12 mph61%30.21 "Hg10 mi
8:00 AM39 °FClear.16 mph65%30.21 "Hg10 mi
7:00 AM39 °FClear.12 mph65%30.18 "Hg10 mi
6:00 AM41 °FClear.14 mph61%30.15 "Hg10 mi
5:00 AM41 °FClear.13 mph66%30.15 "Hg10 mi
4:00 AM41 °FClear.14 mph66%30.12 "Hg10 mi
3:00 AM50 °FPassing clouds.6 mph47%30.12 "HgN/A
2:00 AM48 °FLight rain. Passing clouds.12 mph54%30.09 "HgN/A
1:00 AM46 °FClear.13 mph62%30.07 "Hg10 mi
12:00 AM46 °FClear.13 mph62%30.01 "Hg10 mi
11:00 PM
Thu, Jun 23
48 °FClear.15 mph58%30.01 "Hg10 mi
10:00 PM50 °FClear.18 mph54%29.95 "Hg10 mi
Weather by CustomWeather, © 2016

See weather overviewHow to use our weather pages